THOR ABLESTAR DEB, 1511

Orbit data source: Space-Track

THOR ABLESTAR DEB, 1511 is space debris in LEO originally from a launch on Fri, 13 Aug 1965 UTC launched from the Air Force Western Test Range (AFWTR). Debris objects in space refer to the collection of defunct objects orbiting the Earth. Examples of debris include non-operational satellites, rocket bodies, and fragments generated from explosions, collisions, or faulty payload assembly.

Loading next visibility...
Identifier
1511, 1965-065D
Orbit
LEO
Country
Flag of USUS
Related business
Manufacturer
NRL
Mission
Spacecraft
Bus & Motor
Unknown
Mass
Unknown
Launch date (UTC)
1965-08-13 (60 years ago)
Launch vehicle
Unknown
Launch site
Air Force Western Test Range (AFWTR)
Object type
Payload
Rocket body
Debris
Shape & HBR
Unknown
Radar Cross Section
0.550 m², Medium (>0.1 m² and < 1m²)

Expand to show TLE details & history
Last TLE update: 15 hours ago

TLE from 15 hours ago
0 THOR ABLESTAR DEB
1 01511U 65065D   25260.88432221  .00000042  00000-0  66796-4 0  9999
2 01511  89.9844 211.6465 0066716 252.2158 163.7207 13.34172781924376
Epoch: 2025-09-17T21:13Z
TLE epoch observation values (Epoch: 2025-09-17T21:13:25.438Z)
Latitude
56.24078°
Longitude
-103.74014°
Altitude
1,188.643 km
Speed
7.241 km/s
True Right ascension
14h 06m 40s
True Declination
56° 05' 27"
Sunlit
Object was in daylight at epoch
Visualization orbit readout
Latitude
Unknown
Longitude
Unknown
Altitude
Unknown
Speed
Unknown
Apparent Right ascension
Unknown
Apparent Declination
Unknown
Sunlit
N/A
Visualization observer readout
Local Sidereal Time
05:10:32
Azimuth
Unknown
Elevation
Unknown
Doppler factor
Unknown
Orbital elements
Apogee altitude
1,178.217 km
Perigee altitude
1,078.059 km
Semi-major axis
7,506.275 km
Eccentricity
0.00667
Inclination
89.9844°
RAAN
211.6465°
Arg. of periapsis
252.2158°
True anomaly
163.9333°
Mean anomaly
163.7207°
Eccentric anomaly
163.82717°
Mean motion
3.33739 °/min
Orbital period
107.87 mins
BSTAR
0.000066796
Loading maneuver chart data...
Computing Atmospheric mass density...
Loading historical data...
Loading historical data...
Loading historical data...
Loading historical data...
Loading historical data...
Loading historical data...
Loading historical data...

Documentation

Showing up to 5 results
|